This demonstration page uses our WeatherBlox Daily Observations layout. Learn more.

Left ArrowRight Arrow

Hourly Observations for June 16, 2019

Temp ( °F °C ) Dew Point ( °F °C ) Humidity (%) Winds ( mph kmh ) Pressure ( in mb ) Visibility ( mi km ) Precip ( " mm )
12:56 am 00:56 Mostly Clear 72 22 54 12 53 53 WNW 5 7 29.74 1007 10 16 0.00 0.00
1:56 am 01:56 Clear 70 21 54 12 57 57 NW 6 9 29.76 1008 10 16 0.00 0.00
2:56 am 02:56 Clear 68 20 55 13 64 64 NW 5 7 29.75 1008 10 16 0.00 0.00
3:56 am 03:56 Clear 66 19 55 13 68 68 NW 7 11 29.72 1006 10 16 0.00 0.00
4:56 am 04:56 Clear 66 19 54 12 64 64 WNW 9 15 29.72 1007 10 16 0.00 0.00
5:56 am 05:56 Mostly Sunny 64 18 54 12 68 68 WNW 8 13 29.77 1008 10 16 0.00 0.00
6:56 am 06:56 Mostly Sunny 66 19 55 13 68 68 NW 6 9 29.80 1009 7 11 0.00 0.00
7:56 am 07:56 Partly Cloudy 70 21 55 13 60 60 NW 9 15 29.81 1010 7 11 0.00 0.00
8:56 am 08:56 Partly Cloudy 75 24 59 15 57 57 NNW 10 17 29.82 1010 7 11 0.00 0.00
9:56 am 09:56 Partly Cloudy 77 25 59 15 54 54 N 12 19 29.82 1010 7 11 0.00 0.00
10:56 am 10:56 Partly Cloudy 81 27 59 15 48 48 NNE 5 7 29.82 1010 7 11 0.00 0.00
11:56 am 11:56 Partly Cloudy 82 28 59 15 45 45 N 5 7 29.83 1010 7 11 0.00 0.00
12:56 pm 12:56 Partly Cloudy 84 29 57 14 40 40 NNE 5 7 29.82 1010 7 11 0.00 0.00
1:56 pm 13:56 Partly Cloudy 86 30 50 10 29 29 NNW 12 19 29.82 1010 7 11 0.00 0.00
2:56 pm 14:56 Mostly Sunny 86 30 52 11 31 31 N 13 20 29.80 1009 10 16 0.00 0.00
3:56 pm 15:56 Mostly Sunny 86 30 52 11 31 31 N 6 9 29.80 1009 10 16 0.00 0.00
4:56 pm 16:56 Sunny 88 31 52 11 29 29 NE 5 7 29.77 1008 10 16 0.00 0.00
5:56 pm 17:56 Sunny 86 30 50 10 29 29 NNE 7 11 29.79 1009 10 16 0.00 0.00
6:56 pm 18:56 Mostly Sunny 86 30 52 11 31 31 NNE 3 6 29.79 1009 10 16 0.00 0.00
7:56 pm 19:56 Sunny 84 29 52 11 33 33 Calm 29.79 1009 10 16 0.00 0.00
8:56 pm 20:56 Sunny 82 28 55 13 40 40 Calm 29.80 1009 10 16 0.00 0.00
9:56 pm 21:56 Clear 77 25 59 15 54 54 E 3 6 29.81 1010 10 16 0.00 0.00
10:56 pm 22:56 Partly Cloudy 77 25 61 16 57 57 Calm 29.83 1010 10 16 0.00 0.00
11:56 pm 23:56 Partly Cloudy 75 24 61 16 61 61 ESE 3 6 29.84 1011 10 16 0.00 0.00

Powered by AerisWeather